Location: Slemon Park
(46.4340°N, 63.8219°W)
Time: 13:00:48
(UTC-03:00)

ISS - All Passes

Search period start: 31 August 2016 00:00
Search period end: 10 September 2016 00:00
Orbit: 402 x 406 km, 51.6° (Epoch: 31 August)

Date Brightness Start Highest point End Pass type
(mag) Time Alt. Az. Time Alt. Az. Time Alt. Az.
31 Aug - 08:29:20 10° SW 08:32:31 49° SE 08:35:43 10° ENE daylight
31 Aug - 10:05:54 10° W 10:09:04 42° NNW 10:12:13 10° ENE daylight
31 Aug - 11:42:59 10° WNW 11:46:00 32° N 11:49:01 10° ENE daylight
31 Aug - 13:19:31 10° WNW 13:22:49 74° NNE 13:26:05 10° ESE daylight
31 Aug - 14:56:30 10° W 14:58:59 20° SW 15:01:28 10° S daylight
01 Sep - 07:37:19 10° SSW 07:40:12 28° SE 07:43:05 10° E daylight
01 Sep - 09:13:16 10° W 09:16:31 56° NNW 09:19:47 10° ENE daylight
01 Sep - 10:50:25 10° WNW 10:53:24 31° N 10:56:24 10° ENE daylight
01 Sep - 12:27:05 10° WNW 12:30:19 51° NNE 12:33:32 10° E daylight
01 Sep - 14:03:42 10° WNW 14:06:43 34° SW 14:09:42 10° SSE daylight
02 Sep - 06:45:44 10° S 06:47:57 17° SE 06:50:09 10° E daylight
02 Sep - 08:20:45 10° WSW 08:24:02 85° NNW 08:27:21 10° ENE daylight
02 Sep - 09:57:46 10° WNW 10:00:48 33° N 10:03:50 10° ENE daylight
02 Sep - 11:34:38 10° WNW 11:37:46 39° NNE 11:40:53 10° E daylight
02 Sep - 13:11:06 10° WNW 13:14:21 58° SSW 13:17:35 10° SE daylight
03 Sep - 07:28:23 10° SW 07:31:37 59° SSE 07:34:51 10° ENE daylight
03 Sep - 09:05:05 10° W 09:08:12 39° NNW 09:11:20 10° ENE daylight
03 Sep - 10:42:08 10° WNW 10:45:10 33° N 10:48:13 10° ENE daylight
03 Sep - 12:18:37 10° WNW 12:21:56 86° NNE 12:25:13 10° ESE daylight
03 Sep - 13:55:50 10° W 13:58:02 17° SW 14:00:12 10° S daylight
04 Sep - 06:36:14 10° SSW 06:39:15 34° SE 06:42:17 10° ENE daylight
04 Sep - 08:12:26 10° W 08:15:39 50° NNW 08:18:52 10° ENE daylight
04 Sep - 09:49:33 10° WNW 09:52:34 31° N 09:55:33 10° ENE daylight
04 Sep - 11:26:10 10° WNW 11:29:26 57° NNE 11:32:41 10° E daylight
04 Sep - 13:02:53 10° W 13:05:46 28° SW 13:08:38 10° SSE daylight
05 Sep - 05:44:28 10° S 05:46:57 20° SE 05:49:27 10° E visible
05 Sep - 07:19:51 10° WSW 07:23:08 74° NNW 07:26:25 10° ENE daylight
05 Sep - 08:56:55 10° WNW 08:59:57 32° N 09:02:57 10° ENE daylight
05 Sep - 10:33:44 10° WNW 10:36:53 42° NNE 10:40:02 10° E daylight
05 Sep - 12:10:13 10° WNW 12:13:25 48° SW 12:16:36 10° SE daylight
06 Sep - 04:53:32 10° SSE 04:54:43 12° SE 04:55:56 10° ESE visible
06 Sep - 06:27:24 10° SW 06:30:40 70° SSE 06:33:57 10° ENE daylight
06 Sep - 08:04:14 10° W 08:07:19 36° N 08:10:25 10° ENE daylight
06 Sep - 09:41:13 10° WNW 09:44:17 34° N 09:47:22 10° ENE daylight
06 Sep - 11:17:42 10° WNW 11:21:00 82° SSW 11:24:17 10° ESE daylight
06 Sep - 12:55:13 10° W 12:57:01 14° SW 12:58:48 10° SSW daylight
07 Sep - 05:35:10 10° SW 05:38:16 41° SE 05:41:23 10° ENE visible
07 Sep - 07:11:34 10° W 07:14:44 45° NNW 07:17:56 10° ENE daylight
07 Sep - 08:48:40 10° WNW 08:51:40 31° N 08:54:40 10° ENE daylight
07 Sep - 10:25:14 10° WNW 10:28:31 65° NNE 10:31:47 10° ESE daylight
07 Sep - 12:02:03 10° W 12:04:46 24° SW 12:07:27 10° SSE daylight
08 Sep - 04:43:14 10° SSW 04:45:56 24° SE 04:48:39 10° E visible
08 Sep - 06:18:55 10° WSW 06:22:11 64° NNW 06:25:28 10° ENE daylight
08 Sep - 07:56:02 10° WNW 07:59:02 31° N 08:02:02 10° ENE daylight
08 Sep - 09:32:46 10° WNW 09:35:58 46° NNE 09:39:09 10° E daylight
08 Sep - 11:09:18 10° WNW 11:12:25 40° SW 11:15:32 10° SE daylight
09 Sep - 03:51:53 10° SSE 03:53:40 14° SE 03:55:28 10° E visible
09 Sep - 05:26:25 10° WSW 05:29:41 83° SSE 05:32:59 10° ENE visible
09 Sep - 07:03:20 10° WNW 07:06:23 34° N 07:09:27 10° ENE daylight
09 Sep - 08:40:16 10° WNW 08:43:22 36° NNE 08:46:27 10° E daylight
09 Sep - 10:16:44 10° WNW 10:20:01 70° SSW 10:23:17 10° SE daylight
09 Sep - 11:54:46 10° WSW 11:55:57 12° SW 11:57:08 10° SSW daylight
